Location: Fort Worth, Tx
(32.7431°N, 97.3695°W)
Time: 09:51:54
(UTC-04:00)

A-11 Canister half - Pass Details

Date: 14 August 2024
Orbit: 1524 x 1684 km, 47.3° (Epoch: 13 September)

Event Time Altitude Azimuth Distance (km) Brightness Sun altitude
Rises 21:56:39 0° 192° (SSW) 4,816 11.5 -9.1°
Reaches altitude 10° 22:00:19 10° 181° (S) 3,857 10.9 -9.8°
Maximum altitude 22:08:17 28° 126° (SE) 2,727 9.8 -11.3°
Drops below altitude 10° 22:16:23 10° 72° (ENE) 3,941 10.7 -12.9°
Sets 22:20:09 0° 62° (ENE) 4,938 11.3 -13.6°
